TimeEST,TemperatureF,Dew PointF,Humidity,Sea Level PressureIn,VisibilityMPH,Wind Direction,Wind SpeedMPH,Gust SpeedMPH,PrecipitationIn,Events,Conditions,WindDirDegrees,DateUTC
12:52 AM,44.1,39.9,85,29.81,10.0,South,21.9,28.8,N/A,,Overcast,180,2013-02-11 05:52:00
12:59 AM,42.8,41.0,93,29.79,9.0,South,18.4,28.8,N/A,,Overcast,180,2013-02-11 05:59:00
1:34 AM,42.8,42.8,100,29.77,3.0,South,19.6,27.6,N/A,,Overcast,180,2013-02-11 06:34:00
1:52 AM,43.0,42.1,97,29.79,5.0,South,18.4,-,N/A,,Overcast,180,2013-02-11 06:52:00
2:52 AM,43.0,42.1,97,29.78,10.0,South,16.1,-,N/A,,Overcast,180,2013-02-11 07:52:00
3:52 AM,45.0,44.1,97,29.75,9.0,South,21.9,27.6,N/A,,Overcast,180,2013-02-11 08:52:00
4:52 AM,46.0,45.0,96,29.73,10.0,South,17.3,-,N/A,,Overcast,190,2013-02-11 09:52:00
5:52 AM,46.9,45.0,93,29.73,10.0,South,20.7,27.6,N/A,,Overcast,190,2013-02-11 10:52:00
6:02 AM,46.4,44.6,93,29.70,10.0,SSW,19.6,26.5,N/A,,Mostly Cloudy,200,2013-02-11 11:02:00
6:20 AM,46.4,44.6,93,29.70,10.0,South,18.4,27.6,N/A,,Scattered Clouds,190,2013-02-11 11:20:00
6:52 AM,46.9,44.1,90,29.70,10.0,SSW,19.6,25.3,N/A,,Partly Cloudy,200,2013-02-11 11:52:00
7:52 AM,48.0,43.0,83,29.70,10.0,SSW,23.0,32.2,N/A,,Mostly Cloudy,210,2013-02-11 12:52:00
8:52 AM,48.0,39.9,74,29.71,10.0,SW,25.3,38.0,N/A,,Partly Cloudy,230,2013-02-11 13:52:00
9:52 AM,46.0,36.0,68,29.72,10.0,West,16.1,31.1,N/A,,Partly Cloudy,260,2013-02-11 14:52:00
10:52 AM,43.0,33.1,68,29.75,10.0,WSW,24.2,36.8,N/A,,Mostly Cloudy,250,2013-02-11 15:52:00
11:21 AM,41.0,32.0,70,29.74,10.0,WSW,19.6,31.1,N/A,,Overcast,240,2013-02-11 16:21:00
11:28 AM,42.8,32.0,66,29.74,10.0,WSW,19.6,32.2,N/A,,Overcast,250,2013-02-11 16:28:00
11:36 AM,42.8,32.0,66,29.74,10.0,WSW,27.6,40.3,N/A,,Overcast,240,2013-02-11 16:36:00
11:47 AM,41.0,30.2,65,29.74,10.0,WSW,26.5,41.4,N/A,,Overcast,240,2013-02-11 16:47:00
11:52 AM,41.0,30.2,65,29.74,10.0,WSW,28.8,41.4,N/A,,Overcast,240,2013-02-11 16:52:00
12:52 PM,39.0,28.0,65,29.79,10.0,WSW,16.1,28.8,N/A,,Overcast,250,2013-02-11 17:52:00
1:52 PM,39.0,28.0,65,29.78,10.0,WSW,24.2,36.8,N/A,,Overcast,240,2013-02-11 18:52:00
2:24 PM,37.4,28.4,70,29.78,10.0,WSW,24.2,39.1,N/A,,Overcast,240,2013-02-11 19:24:00
2:52 PM,36.0,26.1,67,29.83,10.0,WSW,27.6,39.1,N/A,,Overcast,240,2013-02-11 19:52:00
3:02 PM,35.6,24.8,65,29.80,10.0,WSW,23.0,43.7,N/A,,Overcast,250,2013-02-11 20:02:00
3:52 PM,35.1,25.0,67,29.85,10.0,WSW,18.4,33.4,N/A,,Overcast,240,2013-02-11 20:52:00
5:52 PM,34.0,25.0,70,29.87,10.0,WSW,18.4,33.4,N/A,,Mostly Cloudy,240,2013-02-11 22:52:00
6:52 PM,34.0,24.1,67,29.89,10.0,WSW,21.9,32.2,N/A,,Overcast,240,2013-02-11 23:52:00
7:52 PM,34.0,23.0,64,29.89,10.0,WSW,24.2,35.7,N/A,,Overcast,250,2013-02-12 00:52:00
8:52 PM,34.0,24.1,67,29.91,10.0,WSW,13.8,31.1,N/A,,Overcast,240,2013-02-12 01:52:00
9:37 PM,33.8,24.8,70,29.88,10.0,West,13.8,27.6,N/A,,Overcast,260,2013-02-12 02:37:00
9:52 PM,33.1,25.0,72,29.92,10.0,West,17.3,32.2,N/A,,Overcast,260,2013-02-12 02:52:00
10:52 PM,32.0,24.1,73,29.93,10.0,West,12.7,25.3,N/A,,Overcast,260,2013-02-12 03:52:00
11:52 PM,32.0,21.9,66,29.95,10.0,West,17.3,27.6,N/A,,Overcast,260,2013-02-12 04:52:00